Location: ??????????
(54.8537°N, 38.8755°E)
Time: 01:14:43
(UTC+00:00)

Tiros 1 - Pass Details

Date: 13 September 2024
Orbit: 623 x 654 km, 48.4° (Epoch: 15 October)

Event Time Altitude Azimuth Distance (km) Brightness Sun altitude
Rises 15:49:44 0° 247° (WSW) 2,902 11.7 -1.4°
Reaches altitude 10° 15:52:10 10° 239° (WSW) 1,999 10.6 -1.8°
Maximum altitude 15:56:22 36° 173° (S) 999 8.0 -2.4°
Drops below altitude 10° 16:00:36 10° 107° (ESE) 2,017 9.0 -3.0°
Enters shadow 16:02:02 - 102° (ESE) 2,545 9.5 -3.2°
Sets 16:03:04 0° 99° (E) 2,932 - -3.3°
